,,,PA_Meas_PMT16A,,PR_Meas_QMR101_102,,RH_Meas_QMH101,,SR_Meas_QMS101,,TA_Meas_QMH101,,GenWind,,GenWind,
date,time,status,PA,status,PR,status,RH,status,SR,status,TA,status,DirAvg,status,SpdAvg,
2008-10-15, 00:00:05,VALID,1004.76,VALID,0,VALID,94.1709,VALID,0,VALID,23.5868,VALID,351,VALID,0.391406,
2008-10-15, 00:01:05,VALID,1004.79,VALID,0,VALID,94.1785,VALID,0,VALID,23.6275,VALID,351,VALID,0.457031,
2008-10-15, 00:02:05,VALID,1004.8,VALID,0,VALID,94.1785,VALID,0,VALID,23.608,VALID,351,VALID,0.391016,
2008-10-15, 00:03:05,VALID,1004.81,VALID,0,VALID,94.1709,VALID,0,VALID,23.608,VALID,351,VALID,0.38125,
2008-10-15, 00:04:05,VALID,1004.81,VALID,0,VALID,94.2014,VALID,0,VALID,23.5885,VALID,351,VALID,0.345313,
2008-10-15, 00:05:05,VALID,1004.78,VALID,0,VALID,94.1785,VALID,0,VALID,23.5691,VALID,351,VALID,0.310547,
2008-10-15, 00:06:05,VALID,1004.77,VALID,0,VALID,94.209,VALID,0,VALID,23.5478,VALID,351,VALID,0,
2008-10-15, 00:07:05,VALID,1004.74,VALID,0,VALID,94.2548,VALID,0,VALID,23.5089,VALID,351,VALID,0,
2008-10-15, 00:08:05,VALID,1004.73,VALID,0,VALID,94.293,VALID,0,VALID,23.5089,VALID,351,VALID,0,
2008-10-15, 00:09:05,VALID,1004.73,VALID,0,VALID,94.3235,VALID,0,VALID,23.5496,VALID,351,VALID,0.475,
2008-10-15, 00:10:05,VALID,1004.71,VALID,0,VALID,94.3692,VALID,0.100563,VALID,23.5089,VALID,351,VALID,0.571875,
2008-10-15, 00:11:05,VALID,1004.68,VALID,0,VALID,94.4227,VALID,0,VALID,23.5089,VALID,351,VALID,0.477344,
2008-10-15, 00:12:05,VALID,1004.69,VALID,0,VALID,94.4303,VALID,0,VALID,23.5089,VALID,351,VALID,0.491797,
2008-10-15, 00:13:05,VALID,1004.7,VALID,0,VALID,94.4837,VALID,0,VALID,23.4894,VALID,351,VALID,0.539844,
2008-10-15, 00:14:05,VALID,1004.67,VALID,0,VALID,94.5142,VALID,0,VALID,23.4894,VALID,351,VALID,0.430078,
2008-10-15, 00:15:05,VALID,1004.7,VALID,0,VALID,94.5523,VALID,0.100563,VALID,23.5089,VALID,351,VALID,0.410156,
2008-10-15, 00:16:05,VALID,1004.69,VALID,0,VALID,94.5752,VALID,0,VALID,23.47,VALID,351,VALID,0.383594,
2008-10-15, 00:17:05,VALID,1004.69,VALID,0,VALID,94.5752,VALID,0,VALID,23.47,VALID,351,VALID,0.253125,
2008-10-15, 00:18:05,VALID,1004.67,VALID,0,VALID,94.5752,VALID,0.100563,VALID,23.47,VALID,351,VALID,0.250391,
2008-10-15, 00:19:05,VALID,1004.65,VALID,0,VALID,94.5905,VALID,0,VALID,23.4505,VALID,351,VALID,0.279687,
2008-10-15, 00:20:05,VALID,1004.63,VALID,0,VALID,94.621,VALID,0.100563,VALID,23.4098,VALID,351,VALID,0.203906,
2008-10-15, 00:21:05,VALID,1004.66,VALID,0,VALID,94.6439,VALID,0,VALID,23.4311,VALID,351,VALID,0.267188,
2008-10-15, 00:22:05,VALID,1004.65,VALID,0,VALID,94.6744,VALID,0,VALID,23.4311,VALID,351,VALID,0.157813,
2008-10-15, 00:23:05,VALID,1004.63,VALID,0,VALID,94.6744,VALID,0.100563,VALID,23.4311,VALID,351,VALID,0.139453,
2008-10-15, 00:24:05,VALID,1004.61,VALID,0,VALID,94.6744,VALID,0,VALID,23.4116,VALID,351,VALID,0.00273437,
2008-10-15, 00:25:05,VALID,1004.57,VALID,0,VALID,94.6591,VALID,0,VALID,23.3921,VALID,351,VALID,0.234766,
2008-10-15, 00:26:05,VALID,1004.57,VALID,0,VALID,94.7736,VALID,0,VALID,23.4116,VALID,351,VALID,0.0636719,
2008-10-15, 00:27:05,VALID,1004.56,VALID,0,VALID,94.8499,VALID,0.100563,VALID,23.4311,VALID,351,VALID,0.174609,
2008-10-15, 00:28:05,VALID,1004.52,VALID,0,VALID,94.8575,VALID,0.100563,VALID,23.4293,VALID,351,VALID,0.453906,
2008-10-15, 00:29:05,VALID,1004.47,VALID,0,VALID,94.8956,VALID,0.100563,VALID,23.47,VALID,351,VALID,0.271094,
2008-10-15, 00:30:05,VALID,1004.48,VALID,0,VALID,94.888,VALID,0,VALID,23.4894,VALID,351,VALID,0.361328,
2008-10-15, 00:31:05,VALID,1004.43,VALID,0,VALID,94.8956,VALID,0.100563,VALID,23.4894,VALID,351,VALID,0.312109,
2008-10-15, 00:32:05,VALID,1004.41,VALID,0,VALID,94.9109,VALID,0,VALID,23.5089,VALID,351,VALID,0.331641,
2008-10-15, 00:33:05,VALID,1004.38,VALID,0,VALID,94.8346,VALID,0.100563,VALID,23.5089,VALID,351,VALID,0.396484,
2008-10-15, 00:34:05,VALID,1004.36,VALID,0,VALID,94.8499,VALID,0.100563,VALID,23.4894,VALID,351,VALID,0.283594,
2008-10-15, 00:35:05,VALID,1004.34,VALID,0,VALID,94.8041,VALID,0.100563,VALID,23.4877,VALID,351,VALID,0.243359,
2008-10-15, 00:36:05,VALID,1004.34,VALID,0,VALID,94.7888,VALID,0.100563,VALID,23.4682,VALID,351,VALID,0.1625,
2008-10-15, 00:37:05,VALID,1004.34,VALID,0,VALID,94.766,VALID,0.100563,VALID,23.4894,VALID,351,VALID,0,
2008-10-15, 00:38:05,VALID,1004.32,VALID,0,VALID,94.7583,VALID,0.100563,VALID,23.47,VALID,351,VALID,0,
2008-10-15, 00:39:05,VALID,1004.32,VALID,0,VALID,94.7507,VALID,0,VALID,23.4523,VALID,351,VALID,0,
2008-10-15, 00:40:05,VALID,1004.28,VALID,0,VALID,94.766,VALID,0,VALID,23.4311,VALID,351,VALID,0.514844,
2008-10-15, 00:41:05,VALID,1004.25,VALID,0,VALID,94.888,VALID,0,VALID,23.4718,VALID,345,VALID,0.710156,
2008-10-15, 00:42:05,VALID,1004.2,VALID,0,VALID,94.9185,VALID,0,VALID,23.5302,VALID,345,VALID,0.425391,
2008-10-15, 00:43:05,VALID,1004.19,VALID,0,VALID,94.8728,VALID,0,VALID,23.5496,VALID,346,VALID,0.439063,
2008-10-15, 00:44:05,VALID,1004.15,VALID,0,VALID,94.7507,VALID,0,VALID,23.5284,VALID,346,VALID,0.420312,
2008-10-15, 00:45:05,VALID,1004.15,VALID,0,VALID,94.6897,VALID,0,VALID,23.5089,VALID,346,VALID,0.432813,
2008-10-15, 00:46:05,VALID,1004.13,VALID,0,VALID,94.6134,VALID,0,VALID,23.5107,VALID,345,VALID,0.369922,
2008-10-15, 00:47:05,VALID,1004.08,VALID,0,VALID,94.5905,VALID,0,VALID,23.4894,VALID,345,VALID,0.465234,
2008-10-15, 00:48:05,VALID,1004.07,VALID,0,VALID,94.5905,VALID,0,VALID,23.4505,VALID,347,VALID,0.505469,
2008-10-15, 00:49:05,VALID,1004.06,VALID,0,VALID,94.5905,VALID,0,VALID,23.4718,VALID,347,VALID,0.321484,
2008-10-15, 00:50:05,VALID,1004.06,VALID,0,VALID,94.5752,VALID,0,VALID,23.4523,VALID,347,VALID,0.388281,
2008-10-15, 00:51:05,VALID,1004.04,VALID,0,VALID,94.5447,VALID,0,VALID,23.4328,VALID,347,VALID,0.442969,
2008-10-15, 00:52:05,VALID,1004.05,VALID,0,VALID,94.5371,VALID,0,VALID,23.4134,VALID,350,VALID,0.475391,
2008-10-15, 00:53:05,VALID,1004.04,VALID,0,VALID,94.5676,VALID,0,VALID,23.3939,VALID,351,VALID,0.303125,
2008-10-15, 00:54:05,VALID,1004.04,VALID,0,VALID,94.5829,VALID,0.100563,VALID,23.3921,VALID,351,VALID,0.407813,
2008-10-15, 00:55:05,VALID,1004.02,VALID,0,VALID,94.5905,VALID,0.100563,VALID,23.4116,VALID,351,VALID,0.392188,
2008-10-15, 00:56:05,VALID,1004.04,VALID,0,VALID,94.6057,VALID,0.100563,VALID,23.3921,VALID,351,VALID,0.15625,
2008-10-15, 00:57:05,VALID,1004.03,VALID,0,VALID,94.5981,VALID,0.100563,VALID,23.3709,VALID,351,VALID,0.0921875,
2008-10-15, 00:58:05,VALID,1004.03,VALID,0,VALID,94.5829,VALID,0.100563,VALID,23.3727,VALID,351,VALID,0.330469,
2008-10-15, 00:59:05,VALID,1004.02,VALID,0,VALID,94.56,VALID,0.100563,VALID,23.3709,VALID,351,VALID,0.0199219,
2008-10-15, 01:00:05,VALID,1004.02,VALID,0,VALID,94.6286,VALID,0.100563,VALID,23.3921,VALID,351,VALID,0,
2008-10-15, 01:01:05,VALID,1004.03,VALID,0,VALID,94.621,VALID,0,VALID,23.3921,VALID,351,VALID,0.0125,
2008-10-15, 01:02:05,VALID,1004.01,VALID,0,VALID,94.6286,VALID,0.100563,VALID,23.3921,VALID,351,VALID,0.285156,
2008-10-15, 01:03:05,VALID,1004.03,VALID,0,VALID,94.5905,VALID,0.100563,VALID,23.3709,VALID,351,VALID,0.167578,
2008-10-15, 01:04:05,VALID,1004.04,VALID,0,VALID,94.5905,VALID,0.100563,VALID,23.3709,VALID,351,VALID,0.359375,
2008-10-15, 01:05:05,VALID,1004.06,VALID,0,VALID,94.5371,VALID,0.100563,VALID,23.3727,VALID,351,VALID,0.282813,
2008-10-15, 01:06:05,VALID,1004.08,VALID,0,VALID,94.5218,VALID,0.100563,VALID,23.3727,VALID,351,VALID,0.125781,
2008-10-15, 01:07:05,VALID,1004.05,VALID,0,VALID,94.4989,VALID,0.100563,VALID,23.3532,VALID,351,VALID,0,
2008-10-15, 01:08:05,VALID,1004.04,VALID,0,VALID,94.4989,VALID,0.100563,VALID,23.3125,VALID,351,VALID,0.236328,
2008-10-15, 01:09:05,VALID,1004.04,VALID,0,VALID,94.4608,VALID,0,VALID,23.316,VALID,351,VALID,0.0820313,
2008-10-15, 01:10:05,VALID,1004.02,VALID,0,VALID,94.4455,VALID,0,VALID,23.2966,VALID,351,VALID,0,
2008-10-15, 01:11:05,VALID,1004,VALID,0,VALID,94.4761,VALID,0,VALID,23.2771,VALID,351,VALID,0,
2008-10-15, 01:12:05,VALID,1003.99,VALID,0,VALID,94.5218,VALID,0,VALID,23.2577,VALID,351,VALID,0,
2008-10-15, 01:13:05,VALID,1003.96,VALID,0,VALID,94.5371,VALID,0,VALID,23.2577,VALID,351,VALID,0,
2008-10-15, 01:14:05,VALID,1003.94,VALID,0,VALID,94.5981,VALID,0,VALID,23.2364,VALID,351,VALID,0,
2008-10-15, 01:15:05,VALID,1003.96,VALID,0,VALID,94.6134,VALID,0,VALID,23.2382,VALID,351,VALID,0,
2008-10-15, 01:16:05,VALID,1003.96,VALID,0,VALID,94.6591,VALID,0,VALID,23.2382,VALID,351,VALID,0,
2008-10-15, 01:17:05,VALID,1003.96,VALID,0,VALID,94.7278,VALID,0,VALID,23.2382,VALID,351,VALID,0.0464844,
2008-10-15, 01:18:05,VALID,1003.92,VALID,0,VALID,94.766,VALID,0,VALID,23.2577,VALID,351,VALID,0,
2008-10-15, 01:19:05,VALID,1003.93,VALID,0,VALID,94.8117,VALID,0,VALID,23.2577,VALID,351,VALID,0,
2008-10-15, 01:20:05,VALID,1003.93,VALID,0,VALID,94.8499,VALID,0,VALID,23.2559,VALID,351,VALID,0,
2008-10-15, 01:21:05,VALID,1003.92,VALID,0,VALID,94.8804,VALID,0,VALID,23.2771,VALID,351,VALID,0,
2008-10-15, 01:22:05,VALID,1003.91,VALID,0,VALID,94.8346,VALID,0,VALID,23.2966,VALID,351,VALID,0,
2008-10-15, 01:23:05,VALID,1003.93,VALID,0,VALID,94.7888,VALID,0,VALID,23.2559,VALID,351,VALID,0,
2008-10-15, 01:24:05,VALID,1003.92,VALID,0,VALID,94.7278,VALID,0,VALID,23.2364,VALID,351,VALID,0,
2008-10-15, 01:25:05,VALID,1003.92,VALID,0,VALID,94.7049,VALID,0,VALID,23.2187,VALID,351,VALID,0,
2008-10-15, 01:26:05,VALID,1003.89,VALID,0,VALID,94.7507,VALID,0,VALID,23.178,VALID,351,VALID,0,
2008-10-15, 01:27:05,VALID,1003.92,VALID,0,VALID,94.7736,VALID,0,VALID,23.178,VALID,351,VALID,0,
2008-10-15, 01:28:05,VALID,1003.89,VALID,0,VALID,94.7507,VALID,0,VALID,23.1816,VALID,351,VALID,0,
2008-10-15, 01:29:05,VALID,1003.91,VALID,0,VALID,94.8346,VALID,0,VALID,23.1391,VALID,351,VALID,0,
2008-10-15, 01:30:05,VALID,1003.93,VALID,0,VALID,94.8194,VALID,0,VALID,23.1197,VALID,351,VALID,0,
2008-10-15, 01:31:05,VALID,1003.92,VALID,0,VALID,94.8041,VALID,0,VALID,23.1214,VALID,351,VALID,0,
2008-10-15, 01:32:05,VALID,1003.91,VALID,0,VALID,94.8575,VALID,0.100563,VALID,23.0807,VALID,351,VALID,0,
2008-10-15, 01:33:05,VALID,1003.92,VALID,0,VALID,94.8728,VALID,0,VALID,23.0807,VALID,351,VALID,0,
2008-10-15, 01:34:05,VALID,1003.9,VALID,0,VALID,94.8728,VALID,0,VALID,23.0825,VALID,351,VALID,0,
2008-10-15, 01:35:05,VALID,1003.91,VALID,0,VALID,94.8804,VALID,0,VALID,23.0418,VALID,351,VALID,0,
2008-10-15, 01:36:05,VALID,1003.9,VALID,0,VALID,94.9796,VALID,0,VALID,23.0436,VALID,351,VALID,0,
2008-10-15, 01:37:05,VALID,1003.9,VALID,0,VALID,95.0558,VALID,0,VALID,23.0418,VALID,351,VALID,0,
2008-10-15, 01:38:05,VALID,1003.93,VALID,0,VALID,95.0101,VALID,0,VALID,23.0613,VALID,351,VALID,0,
2008-10-15, 01:39:05,VALID,1003.9,VALID,0,VALID,94.9796,VALID,0,VALID,23.0206,VALID,351,VALID,0,
2008-10-15, 01:40:05,VALID,1003.92,VALID,0,VALID,95.0253,VALID,0,VALID,23.0418,VALID,351,VALID,0,
2008-10-15, 01:41:05,VALID,1003.94,VALID,0,VALID,95.0024,VALID,0.100563,VALID,23.0418,VALID,351,VALID,0,
2008-10-15, 01:42:05,VALID,1003.93,VALID,0,VALID,95.0406,VALID,0,VALID,23.0224,VALID,351,VALID,0,
2008-10-15, 01:43:05,VALID,1003.92,VALID,0,VALID,95.0101,VALID,0,VALID,23.0224,VALID,351,VALID,0,
2008-10-15, 01:44:05,VALID,1003.94,VALID,0,VALID,94.9567,VALID,0,VALID,22.9622,VALID,351,VALID,0,
2008-10-15, 01:45:05,VALID,1003.96,VALID,0,VALID,94.949,VALID,0,VALID,22.9657,VALID,351,VALID,0,
2008-10-15, 01:46:05,VALID,1003.96,VALID,0,VALID,95.0024,VALID,0,VALID,22.9251,VALID,351,VALID,0,
2008-10-15, 01:47:05,VALID,1003.97,VALID,0,VALID,95.0253,VALID,0,VALID,22.9251,VALID,351,VALID,0,
2008-10-15, 01:48:05,VALID,1003.97,VALID,0,VALID,95.0101,VALID,0,VALID,22.9251,VALID,351,VALID,0,
2008-10-15, 01:49:05,VALID,1003.97,VALID,0,VALID,95.0482,VALID,0,VALID,22.9056,VALID,351,VALID,0,
2008-10-15, 01:50:05,VALID,1004,VALID,0,VALID,95.0558,VALID,0,VALID,22.8861,VALID,351,VALID,0,
2008-10-15, 01:51:05,VALID,1004,VALID,0,VALID,95.0024,VALID,0.100563,VALID,22.8667,VALID,351,VALID,0,
2008-10-15, 01:52:05,VALID,1003.98,VALID,0,VALID,95.1016,VALID,0,VALID,22.8455,VALID,351,VALID,0,
2008-10-15, 01:53:05,VALID,1003.99,VALID,0,VALID,95.2313,VALID,0,VALID,22.8879,VALID,351,VALID,0,
2008-10-15, 01:54:05,VALID,1003.98,VALID,0,VALID,95.2542,VALID,0,VALID,22.8861,VALID,351,VALID,0,
2008-10-15, 01:55:05,VALID,1003.94,VALID,0,VALID,95.1855,VALID,0,VALID,22.8861,VALID,351,VALID,0,
2008-10-15, 01:56:05,VALID,1003.95,VALID,0,VALID,95.1016,VALID,0,VALID,22.8455,VALID,351,VALID,0,
2008-10-15, 01:57:05,VALID,1003.93,VALID,0,VALID,95.1474,VALID,0,VALID,22.8472,VALID,351,VALID,0,
2008-10-15, 01:58:05,VALID,1003.92,VALID,0,VALID,95.3686,VALID,0,VALID,22.9056,VALID,351,VALID,0,
2008-10-15, 01:59:05,VALID,1003.89,VALID,0,VALID,95.3,VALID,0,VALID,22.9251,VALID,351,VALID,0.661328,
2008-10-15, 02:00:05,VALID,1003.89,VALID,0,VALID,95.2771,VALID,0,VALID,22.9056,VALID,351,VALID,0.462109,
2008-10-15, 02:01:05,VALID,1003.87,VALID,0,VALID,95.3305,VALID,0.100563,VALID,22.9056,VALID,351,VALID,0.407813,
2008-10-15, 02:02:05,VALID,1003.85,VALID,0,VALID,95.3839,VALID,0,VALID,22.9445,VALID,351,VALID,0.352734,
2008-10-15, 02:03:05,VALID,1003.84,VALID,0,VALID,95.3,VALID,0,VALID,22.9056,VALID,351,VALID,0.482031,
2008-10-15, 02:04:05,VALID,1003.81,VALID,0,VALID,95.2695,VALID,0,VALID,22.9056,VALID,351,VALID,0.472266,
2008-10-15, 02:05:05,VALID,1003.82,VALID,0,VALID,95.3534,VALID,0,VALID,22.9285,VALID,351,VALID,0.31875,
2008-10-15, 02:06:05,VALID,1003.78,VALID,0,VALID,95.3991,VALID,0,VALID,22.9056,VALID,351,VALID,0.265625,
2008-10-15, 02:07:05,VALID,1003.76,VALID,0,VALID,95.4144,VALID,0,VALID,22.9463,VALID,351,VALID,0.386328,
2008-10-15, 02:08:05,VALID,1003.76,VALID,0,VALID,95.2923,VALID,0,VALID,22.9056,VALID,351,VALID,0.467187,
2008-10-15, 02:09:05,VALID,1003.73,VALID,0,VALID,95.2542,VALID,0,VALID,22.8667,VALID,351,VALID,0.307422,
2008-10-15, 02:10:05,VALID,1003.74,VALID,0,VALID,95.2618,VALID,0,VALID,22.8684,VALID,351,VALID,0.289063,
2008-10-15, 02:11:05,VALID,1003.76,VALID,0,VALID,95.3229,VALID,0,VALID,22.8472,VALID,351,VALID,0.113672,
2008-10-15, 02:12:05,VALID,1003.76,VALID,0,VALID,95.3991,VALID,0,VALID,22.8066,VALID,351,VALID,0.321484,
2008-10-15, 02:13:05,VALID,1003.76,VALID,0,VALID,95.4373,VALID,0,VALID,22.8472,VALID,351,VALID,0.461719,
2008-10-15, 02:14:05,VALID,1003.76,VALID,0,VALID,95.4754,VALID,0,VALID,22.8667,VALID,351,VALID,0.446484,
2008-10-15, 02:15:05,VALID,1003.75,VALID,0,VALID,95.4602,VALID,0,VALID,22.8667,VALID,350,VALID,0.357812,
2008-10-15, 02:16:05,VALID,1003.72,VALID,0,VALID,95.4754,VALID,0,VALID,22.8879,VALID,351,VALID,0.45,
2008-10-15, 02:17:05,VALID,1003.72,VALID,0,VALID,95.4907,VALID,0,VALID,22.8861,VALID,350,VALID,0.471094,
2008-10-15, 02:18:05,VALID,1003.68,VALID,0,VALID,95.4754,VALID,0,VALID,22.8667,VALID,350,VALID,0.495313,
2008-10-15, 02:19:05,VALID,1003.68,VALID,0,VALID,95.4754,VALID,0.100563,VALID,22.8861,VALID,350,VALID,0.589063,
2008-10-15, 02:20:05,VALID,1003.69,VALID,0,VALID,95.506,VALID,0,VALID,22.9056,VALID,352,VALID,0.610937,
2008-10-15, 02:21:05,VALID,1003.64,VALID,0,VALID,95.5441,VALID,0,VALID,22.9056,VALID,353,VALID,0.692969,
2008-10-15, 02:22:05,VALID,1003.63,VALID,0,VALID,95.5594,VALID,0.100563,VALID,22.9233,VALID,353,VALID,0.528125,
2008-10-15, 02:23:05,VALID,1003.61,VALID,0,VALID,95.5365,VALID,0,VALID,22.9251,VALID,353,VALID,0.423047,
2008-10-15, 02:24:05,VALID,1003.58,VALID,0,VALID,95.5212,VALID,0,VALID,22.9056,VALID,353,VALID,0.510547,
2008-10-15, 02:25:05,VALID,1003.54,VALID,0,VALID,95.567,VALID,0.100563,VALID,22.9251,VALID,352,VALID,0.542969,
2008-10-15, 02:26:04,VALID,1003.55,VALID,0,VALID,95.628,VALID,0.100563,VALID,22.9852,VALID,352,VALID,0.593359,
2008-10-15, 02:27:04,VALID,1003.53,VALID,0,VALID,95.5975,VALID,0,VALID,22.9852,VALID,352,VALID,0.561328,
2008-10-15, 02:28:04,VALID,1003.51,VALID,0,VALID,95.5441,VALID,0,VALID,22.964,VALID,352,VALID,0.575,
2008-10-15, 02:29:04,VALID,1003.48,VALID,0,VALID,95.5365,VALID,0,VALID,22.964,VALID,352,VALID,0.53125,
2008-10-15, 02:30:04,VALID,1003.46,VALID,0,VALID,95.506,VALID,0,VALID,22.964,VALID,352,VALID,0.544141,
2008-10-15, 02:31:04,VALID,1003.48,VALID,0,VALID,95.506,VALID,0,VALID,22.9852,VALID,352,VALID,0.531641,
2008-10-15, 02:32:04,VALID,1003.5,VALID,0,VALID,95.4907,VALID,0,VALID,22.9445,VALID,352,VALID,0.492969,
2008-10-15, 02:33:04,VALID,1003.48,VALID,0,VALID,95.4983,VALID,0,VALID,22.9251,VALID,352,VALID,0.379297,
2008-10-15, 02:34:04,VALID,1003.5,VALID,0,VALID,95.5136,VALID,0,VALID,22.9251,VALID,352,VALID,0.382422,
2008-10-15, 02:35:04,VALID,1003.47,VALID,0,VALID,95.506,VALID,0,VALID,22.9463,VALID,352,VALID,0.592188,
2008-10-15, 02:36:04,VALID,1003.44,VALID,0,VALID,95.5822,VALID,0,VALID,22.9445,VALID,352,VALID,0.635156,
2008-10-15, 02:37:04,VALID,1003.45,VALID,0,VALID,95.6051,VALID,0.100563,VALID,22.9445,VALID,352,VALID,0.678125,
2008-10-15, 02:38:04,VALID,1003.43,VALID,0,VALID,95.5746,VALID,0,VALID,22.964,VALID,352,VALID,0.687891,
2008-10-15, 02:39:04,VALID,1003.42,VALID,0,VALID,95.5975,VALID,0,VALID,22.9852,VALID,352,VALID,0.610156,
2008-10-15, 02:40:04,VALID,1003.41,VALID,0,VALID,95.6433,VALID,0,VALID,22.964,VALID,352,VALID,0.607422,
2008-10-15, 02:41:04,VALID,1003.37,VALID,0,VALID,95.6204,VALID,0,VALID,22.9834,VALID,352,VALID,0.580859,
2008-10-15, 02:42:04,VALID,1003.36,VALID,0,VALID,95.6051,VALID,0,VALID,22.964,VALID,352,VALID,0.533203,
2008-10-15, 02:43:04,VALID,1003.35,VALID,0,VALID,95.5822,VALID,0,VALID,23.0046,VALID,352,VALID,0.575781,
2008-10-15, 02:44:04,VALID,1003.32,VALID,0,VALID,95.6051,VALID,0,VALID,22.9834,VALID,352,VALID,0.515625,
2008-10-15, 02:45:04,VALID,1003.33,VALID,0,VALID,95.5746,VALID,0,VALID,22.9852,VALID,352,VALID,0.421094,
2008-10-15, 02:46:04,VALID,1003.36,VALID,0,VALID,95.6128,VALID,0,VALID,22.9834,VALID,352,VALID,0.323047,
2008-10-15, 02:47:04,VALID,1003.35,VALID,0,VALID,95.6585,VALID,0,VALID,22.9834,VALID,352,VALID,0.361328,
2008-10-15, 02:48:04,VALID,1003.34,VALID,0,VALID,95.6509,VALID,0,VALID,23.0029,VALID,352,VALID,0.4,
2008-10-15, 02:49:04,VALID,1003.32,VALID,0,VALID,95.628,VALID,0,VALID,23.0224,VALID,352,VALID,0.436719,
2008-10-15, 02:50:04,VALID,1003.31,VALID,0,VALID,95.6204,VALID,0,VALID,23.0029,VALID,352,VALID,0.438281,
2008-10-15, 02:51:04,VALID,1003.31,VALID,0,VALID,95.5365,VALID,0.100563,VALID,22.9852,VALID,352,VALID,0.489844,
2008-10-15, 02:52:04,VALID,1003.29,VALID,0,VALID,95.5365,VALID,0,VALID,22.9445,VALID,352,VALID,0.542188,
2008-10-15, 02:53:04,VALID,1003.28,VALID,0,VALID,95.567,VALID,0,VALID,22.9445,VALID,352,VALID,0.521484,
2008-10-15, 02:54:04,VALID,1003.26,VALID,0,VALID,95.5899,VALID,0,VALID,22.9445,VALID,352,VALID,0.440234,
2008-10-15, 02:55:04,VALID,1003.25,VALID,0,VALID,95.5975,VALID,0,VALID,22.9445,VALID,352,VALID,0.483594,
2008-10-15, 02:56:04,VALID,1003.23,VALID,0,VALID,95.6204,VALID,0.100563,VALID,22.9251,VALID,352,VALID,0.405859,
2008-10-15, 02:57:04,VALID,1003.23,VALID,0,VALID,95.6128,VALID,0,VALID,22.9233,VALID,352,VALID,0.410547,
2008-10-15, 02:58:04,VALID,1003.23,VALID,0,VALID,95.6356,VALID,0,VALID,22.9445,VALID,352,VALID,0.305469,
2008-10-15, 02:59:04,VALID,1003.23,VALID,0,VALID,95.7119,VALID,0,VALID,22.964,VALID,352,VALID,0.265625,
2008-10-15, 03:00:04,VALID,1003.25,VALID,0,VALID,95.7501,VALID,0,VALID,23.0029,VALID,352,VALID,0.108203,
2008-10-15, 03:01:04,VALID,1003.22,VALID,0,VALID,95.7577,VALID,0,VALID,23.0436,VALID,352,VALID,0.241797,
2008-10-15, 03:02:04,VALID,1003.2,VALID,0,VALID,95.7348,VALID,0,VALID,23.0418,VALID,352,VALID,0.265234,
2008-10-15, 03:03:04,VALID,1003.16,VALID,0,VALID,95.7272,VALID,0,VALID,23.0613,VALID,352,VALID,0.427734,
2008-10-15, 03:04:04,VALID,1003.13,VALID,0,VALID,95.7501,VALID,0.100563,VALID,23.0595,VALID,352,VALID,0.402734,
2008-10-15, 03:05:04,VALID,1003.11,VALID,0,VALID,95.7424,VALID,0,VALID,23.1002,VALID,352,VALID,0.270312,
2008-10-15, 03:06:04,VALID,1003.07,VALID,0,VALID,95.7043,VALID,0,VALID,23.1002,VALID,352,VALID,0.526172,
2008-10-15, 03:07:04,VALID,1003.06,VALID,0,VALID,95.7119,VALID,0,VALID,23.1197,VALID,352,VALID,0.279687,
2008-10-15, 03:08:04,VALID,1003.03,VALID,0,VALID,95.7272,VALID,0,VALID,23.1391,VALID,352,VALID,0.314453,
2008-10-15, 03:09:04,VALID,1003.01,VALID,0,VALID,95.7348,VALID,0,VALID,23.1603,VALID,352,VALID,0.131641,
2008-10-15, 03:10:04,VALID,1002.99,VALID,0,VALID,95.7119,VALID,0,VALID,23.1798,VALID,352,VALID,0.121484,
2008-10-15, 03:11:04,VALID,1003.01,VALID,0,VALID,95.6967,VALID,0,VALID,23.1798,VALID,352,VALID,0,
2008-10-15, 03:12:04,VALID,1003.03,VALID,0,VALID,95.6662,VALID,0,VALID,23.1798,VALID,352,VALID,0,
2008-10-15, 03:13:04,VALID,1003.02,VALID,0,VALID,95.6356,VALID,0,VALID,23.1798,VALID,352,VALID,0.00429688,
2008-10-15, 03:14:04,VALID,1003.05,VALID,0,VALID,95.6585,VALID,0,VALID,23.1603,VALID,339,VALID,0.143359,
2008-10-15, 03:15:04,VALID,1003.09,VALID,0,VALID,95.7043,VALID,0,VALID,23.2382,VALID,307,VALID,0.45,
2008-10-15, 03:16:04,VALID,1003.08,VALID,0,VALID,95.7119,VALID,0,VALID,23.2577,VALID,294,VALID,0.225391,
2008-10-15, 03:17:04,VALID,1003.09,VALID,0,VALID,95.7272,VALID,0,VALID,23.2771,VALID,294,VALID,0,
2008-10-15, 03:18:04,VALID,1003.06,VALID,0,VALID,95.689,VALID,0,VALID,23.2966,VALID,294,VALID,0.0871094,
2008-10-15, 03:19:04,VALID,1003.06,VALID,0,VALID,95.6204,VALID,0,VALID,23.2771,VALID,294,VALID,0.251172,
2008-10-15, 03:20:04,VALID,1003.05,VALID,0,VALID,95.5288,VALID,0,VALID,23.2577,VALID,294,VALID,0.323047,
2008-10-15, 03:21:04,VALID,1003.01,VALID,0,VALID,95.5288,VALID,0,VALID,23.2577,VALID,294,VALID,0.242578,
2008-10-15, 03:22:04,VALID,1003,VALID,0,VALID,95.5136,VALID,0,VALID,23.2577,VALID,294,VALID,0.256641,
2008-10-15, 03:23:04,VALID,1002.99,VALID,0,VALID,95.4831,VALID,0,VALID,23.2187,VALID,294,VALID,0,
2008-10-15, 03:24:04,VALID,1003.02,VALID,0,VALID,95.4678,VALID,0,VALID,23.2382,VALID,294,VALID,0,
2008-10-15, 03:25:04,VALID,1003,VALID,0,VALID,95.6204,VALID,0,VALID,23.2382,VALID,294,VALID,0.517187,
2008-10-15, 03:26:04,VALID,1003.01,VALID,0,VALID,95.689,VALID,0,VALID,23.2966,VALID,294,VALID,0.632031,
2008-10-15, 03:27:04,VALID,1003.01,VALID,0,VALID,95.6433,VALID,0,VALID,23.316,VALID,294,VALID,0.26875,
2008-10-15, 03:28:04,VALID,1003.04,VALID,0,VALID,95.567,VALID,0,VALID,23.3355,VALID,294,VALID,0.142188,
2008-10-15, 03:29:04,VALID,1003.08,VALID,0,VALID,95.4983,VALID,0,VALID,23.3355,VALID,294,VALID,0.208594,
2008-10-15, 03:30:04,VALID,1003.08,VALID,0,VALID,95.4526,VALID,0,VALID,23.316,VALID,294,VALID,0.174609,
2008-10-15, 03:31:04,VALID,1003.08,VALID,0,VALID,95.3915,VALID,0,VALID,23.2754,VALID,294,VALID,0,
2008-10-15, 03:32:04,VALID,1003.08,VALID,0,VALID,95.3,VALID,0,VALID,23.2577,VALID,294,VALID,0,
2008-10-15, 03:33:04,VALID,1003.08,VALID,0,VALID,95.2695,VALID,0,VALID,23.2594,VALID,294,VALID,0,
2008-10-15, 03:34:04,VALID,1003.07,VALID,0,VALID,95.2695,VALID,0,VALID,23.1993,VALID,294,VALID,0,
2008-10-15, 03:35:04,VALID,1003.07,VALID,0,VALID,95.2466,VALID,0,VALID,23.1603,VALID,294,VALID,0,
2008-10-15, 03:36:04,VALID,1003.08,VALID,0,VALID,95.2695,VALID,0,VALID,23.1409,VALID,294,VALID,0,
2008-10-15, 03:37:04,VALID,1003.08,VALID,0,VALID,95.3076,VALID,0,VALID,23.1409,VALID,294,VALID,0,
2008-10-15, 03:38:04,VALID,1003.06,VALID,0,VALID,95.4602,VALID,0,VALID,23.1603,VALID,294,VALID,0.154687,
2008-10-15, 03:39:04,VALID,1003.07,VALID,0,VALID,95.5594,VALID,0,VALID,23.1993,VALID,293,VALID,0.747266,
2008-10-15, 03:40:04,VALID,1003.04,VALID,0,VALID,95.5288,VALID,0,VALID,23.2382,VALID,246,VALID,0.398828,
2008-10-15, 03:41:04,VALID,1003.08,VALID,0,VALID,95.5136,VALID,0,VALID,23.2382,VALID,261,VALID,0.537891,
2008-10-15, 03:42:04,VALID,1003.08,VALID,0,VALID,95.5136,VALID,0,VALID,23.2594,VALID,263,VALID,0.267578,
2008-10-15, 03:43:04,VALID,1003.07,VALID,0,VALID,95.506,VALID,0,VALID,23.2754,VALID,264,VALID,0.130078,
2008-10-15, 03:44:04,VALID,1003.08,VALID,0,VALID,95.4678,VALID,0,VALID,23.2966,VALID,264,VALID,0.128516,
2008-10-15, 03:45:04,VALID,1003.07,VALID,0,VALID,95.4449,VALID,0,VALID,23.316,VALID,264,VALID,0.0105469,
2008-10-15, 03:46:04,VALID,1003.06,VALID,0,VALID,95.3,VALID,0,VALID,23.2771,VALID,264,VALID,0.309766,